Simultaneous Nadir Overpasses (SNOs) Predictions

Prediction of SNOs between GOES-15 and NPP Satellite Orbit:

Table of predicted SNOs for the next 14.0 days since TLE Epoch: 11/18/2012
Index Date Time (GOES-15) GOES-15 Lat,Lon NPP Lat,Lon Distance(km) Time Diff (sec)
1 11/19/2012 22:31:54 0.00,-134.80 -0.62,-137.45 303.36 80
2 11/20/2012 22:15:49 -0.01,-134.84 0.40,-132.92 218.35 80
3 11/22/2012 10:34:58 -0.02,-134.92 0.72,-138.21 374.73 80
4 11/23/2012 10:18:54 -0.00,-134.96 -0.30,-133.68 146.56 80
5 11/24/2012 22:38:10 0.03,-135.01 -0.87,-138.98 452.73 80
6 11/25/2012 22:22:06 0.01,-135.05 0.15,-134.45 68.49 80
7 11/28/2012 10:22:30 -0.02,-135.16 -0.01,-135.20 4.37 80
8 11/30/2012 22:25:41 0.03,-135.23 -0.12,-135.98 84.78 80
9 12/01/2012 22:09:36
